TimeMST,TemperatureF,Dew PointF,Humidity,Sea Level PressureIn,VisibilityMPH,Wind Direction,Wind SpeedMPH,Gust SpeedMPH,PrecipitationIn,Events,Conditions,WindDirDegrees,DateUTC
12:53 AM,26.1,24.1,92,29.87,0.5,ESE,11.5,-,0.05,Fog-Snow,Snow,120,2013-11-21 07:53:00
1:03 AM,26.1,24.1,92,29.92,0.2,ESE,10.4,-,0.02,Fog-Snow,Heavy Snow,110,2013-11-21 08:03:00
1:53 AM,26.1,25.0,96,29.91,0.2,SSE,4.6,-,0.15,Fog-Snow,Heavy Snow,150,2013-11-21 08:53:00
2:23 AM,25.0,24.1,96,29.97,0.8,SE,3.5,-,0.03,Snow,Light Snow,130,2013-11-21 09:23:00
2:53 AM,24.1,21.9,91,29.93,0.5,WSW,4.6,-,0.04,Fog-Snow,Snow,240,2013-11-21 09:53:00
3:11 AM,24.1,21.0,88,29.98,1.2,West,3.5,-,0.01,Snow,Light Snow,260,2013-11-21 10:11:00
3:35 AM,23.0,21.0,92,29.98,1.2,WSW,4.6,-,0.01,Snow,Light Snow,240,2013-11-21 10:35:00
3:44 AM,23.0,21.0,92,29.98,1.5,SW,4.6,-,0.01,Snow,Light Snow,230,2013-11-21 10:44:00
3:53 AM,23.0,19.9,88,29.96,2.0,SW,5.8,-,0.01,Snow,Light Snow,230,2013-11-21 10:53:00
4:03 AM,23.0,19.9,88,29.99,1.5,SW,4.6,-,0.00,Snow,Light Snow,220,2013-11-21 11:03:00
4:11 AM,21.9,19.9,92,29.99,2.0,WSW,3.5,-,0.00,Snow,Light Snow,240,2013-11-21 11:11:00
4:19 AM,21.9,19.9,92,29.99,3.0,WSW,3.5,-,0.00,Snow,Light Snow,240,2013-11-21 11:19:00
4:53 AM,21.9,19.0,89,30.00,4.0,WSW,5.8,-,0.00,Snow,Light Snow,240,2013-11-21 11:53:00
5:28 AM,21.0,18.0,88,30.02,6.0,SSW,5.8,-,0.00,Snow,Light Snow,200,2013-11-21 12:28:00
5:53 AM,19.9,17.1,89,30.03,5.0,SSW,8.1,-,0.00,Snow,Light Snow,210,2013-11-21 12:53:00
6:53 AM,19.9,16.0,85,30.08,8.0,SSW,10.4,-,0.00,Snow,Light Snow,210,2013-11-21 13:53:00
7:01 AM,19.9,16.0,85,30.04,9.0,SSW,10.4,-,0.00,Snow,Light Snow,210,2013-11-21 14:01:00
7:53 AM,19.9,17.1,89,30.11,9.0,SW,10.4,-,0.00,,Overcast,230,2013-11-21 14:53:00
8:10 AM,21.0,17.1,85,30.08,8.0,SW,10.4,-,0.00,,Overcast,230,2013-11-21 15:10:00
8:53 AM,19.9,16.0,85,30.15,10.0,SSW,16.1,-,0.00,,Overcast,200,2013-11-21 15:53:00
9:26 AM,19.9,15.1,81,30.13,10.0,SSW,12.7,-,N/A,,Overcast,210,2013-11-21 16:26:00
9:37 AM,19.9,15.1,81,30.14,10.0,SSW,13.8,-,N/A,,Overcast,210,2013-11-21 16:37:00
9:53 AM,19.9,15.1,81,30.19,10.0,SSW,11.5,-,N/A,,Overcast,210,2013-11-21 16:53:00
10:24 AM,19.9,15.1,81,30.16,10.0,SSW,15.0,-,N/A,,Overcast,210,2013-11-21 17:24:00
10:53 AM,19.0,12.9,77,30.23,10.0,SSW,16.1,-,N/A,,Overcast,210,2013-11-21 17:53:00
11:53 AM,19.0,14.0,81,30.25,10.0,SSW,13.8,-,N/A,,Mostly Cloudy,210,2013-11-21 18:53:00
12:53 PM,19.0,12.9,77,30.27,10.0,SSW,13.8,-,N/A,,Mostly Cloudy,200,2013-11-21 19:53:00
1:03 PM,19.9,12.9,74,30.19,10.0,SSW,11.5,-,N/A,,Mostly Cloudy,200,2013-11-21 20:03:00
1:53 PM,19.9,14.0,78,30.30,10.0,SSW,12.7,-,N/A,,Overcast,200,2013-11-21 20:53:00
2:22 PM,19.9,14.0,78,30.22,10.0,South,13.8,-,N/A,,Overcast,190,2013-11-21 21:22:00
2:53 PM,19.9,14.0,78,30.33,10.0,SSW,10.4,-,N/A,,Mostly Cloudy,200,2013-11-21 21:53:00
3:53 PM,18.0,12.9,81,30.38,10.0,South,9.2,-,N/A,,Clear,190,2013-11-21 22:53:00
4:53 PM,16.0,10.9,81,30.44,10.0,SSW,9.2,-,N/A,,Scattered Clouds,200,2013-11-21 23:53:00
5:53 PM,14.0,9.0,80,30.50,10.0,SSW,9.2,-,N/A,,Clear,200,2013-11-22 00:53:00
6:53 PM,10.9,7.0,84,30.55,10.0,SSW,6.9,-,N/A,,Clear,210,2013-11-22 01:53:00
7:53 PM,10.0,7.0,87,30.57,10.0,SW,6.9,-,N/A,,Clear,220,2013-11-22 02:53:00
8:49 PM,-0.4,-0.4,100,30.41,1.8,Calm,Calm,-,N/A,,Clear,0,2013-11-22 03:49:00
8:53 PM,-0.9,-2.0,95,30.65,1.0,Calm,Calm,-,N/A,,Clear,0,2013-11-22 03:53:00
9:02 PM,3.9,3.0,96,30.42,3.0,Calm,Calm,-,N/A,,Clear,0,2013-11-22 04:02:00
9:07 PM,1.0,-0.0,95,30.42,1.5,East,4.6,-,N/A,,Partly Cloudy,80,2013-11-22 04:07:00
9:10 PM,-2.0,-4.0,91,30.43,0.8,East,5.8,-,N/A,,Mist,80,2013-11-22 04:10:00
9:33 PM,-2.9,-5.1,90,30.44,1.2,ENE,9.2,-,N/A,,Partly Cloudy,60,2013-11-22 04:33:00
9:53 PM,-2.9,-6.0,87,30.70,2.5,NE,8.1,-,N/A,,Partly Cloudy,40,2013-11-22 04:53:00
10:00 PM,-2.0,-5.1,87,30.46,10.0,NE,10.4,-,N/A,,Partly Cloudy,40,2013-11-22 05:00:00
10:53 PM,-8.0,-11.9,83,30.74,1.8,NE,9.2,-,N/A,,Scattered Clouds,50,2013-11-22 05:53:00
10:55 PM,-8.0,-11.9,83,30.47,0.8,NE,8.1,-,N/A,,Mist,50,2013-11-22 05:55:00
11:53 PM,-5.1,-8.0,87,30.73,0.8,NE,5.8,-,N/A,,Mist,50,2013-11-22 06:53:00